Back to catalog

ARIANE 44L DEB

LostHEO
NORAD 28574·DEBRIS·🇫🇷 France

Launched Jan 15, 1991 from Guiana Space Centre

Loading…

Next Passes (next 24 hours)

TLE

StaleSource: Space-Track

Epoch: Oct 4, 2025, 09:47 UTC

1 28574U 91003P   25277.40793293  .00001780  00000-0  69615-2 0  9994
2 28574   6.3722 221.3164 6579015 114.5557 324.9556  3.05113264132069

Track ARIANE 44L DEB in real time with AllMySat

Download on the App Store